Time,TemperatureF,DewpointF,PressureIn,WindDirection,WindDirectionDegrees,WindSpeedMPH,WindSpeedGustMPH,Humidity,HourlyPrecipIn,Conditions,Clouds,dailyrainin,SoftwareType,DateUTC
2013-06-25 00:01:00,76.0,66.0,-100.00,West,264,4.0,-999.0,69,-99.99,,,-99.99,,2013-06-25 04:01:00,
2013-06-25 00:02:00,76.0,66.0,-100.00,West,264,4.0,-999.0,69,-99.99,,,-99.99,,2013-06-25 04:02:00,
2013-06-25 00:34:00,75.0,67.0,-100.00,SSW,201,5.0,-999.0,73,-99.99,,,-99.99,,2013-06-25 04:34:00,
2013-06-25 00:43:00,75.0,67.0,-100.00,SW,229,5.0,-999.0,75,-99.99,,,-99.99,,2013-06-25 04:43:00,
2013-06-25 01:01:00,75.0,68.0,-100.00,SW,214,6.0,-999.0,78,-99.99,,,-99.99,,2013-06-25 05:01:00,
2013-06-25 01:11:00,75.0,68.0,-100.00,SW,214,6.0,-999.0,78,-99.99,,,-99.99,,2013-06-25 05:11:00,
2013-06-25 01:22:00,75.0,68.0,-100.00,SW,214,6.0,-999.0,78,-99.99,,,-99.99,,2013-06-25 05:22:00,
2013-06-25 01:32:00,75.0,68.0,-100.00,SSW,213,4.0,-999.0,80,-99.99,,,-99.99,,2013-06-25 05:32:00,
2013-06-25 01:44:00,75.0,68.0,-100.00,SSW,213,4.0,-999.0,80,-99.99,,,-99.99,,2013-06-25 05:44:00,
2013-06-25 01:52:00,75.0,69.0,-100.00,WSW,242,5.0,-999.0,83,-99.99,,,-99.99,,2013-06-25 05:52:00,
2013-06-25 02:01:00,75.0,69.0,-100.00,WSW,242,5.0,-999.0,83,-99.99,,,-99.99,,2013-06-25 06:01:00,
2013-06-25 02:11:00,75.0,69.0,-100.00,WSW,242,5.0,-999.0,83,-99.99,,,-99.99,,2013-06-25 06:11:00,
2013-06-25 02:22:00,74.0,69.0,-100.00,WSW,253,5.0,-999.0,83,-99.99,,,-99.99,,2013-06-25 06:22:00,
2013-06-25 02:34:00,74.0,69.0,-100.00,WSW,253,5.0,-999.0,83,-99.99,,,-99.99,,2013-06-25 06:34:00,
2013-06-25 02:43:00,74.0,69.0,-100.00,WSW,253,5.0,-999.0,83,-99.99,,,-99.99,,2013-06-25 06:43:00,
2013-06-25 02:52:00,74.0,69.0,-100.00,West,260,3.0,-999.0,82,-99.99,,,-99.99,,2013-06-25 06:52:00,
2013-06-25 03:02:00,74.0,69.0,-100.00,West,260,3.0,-999.0,82,-99.99,,,-99.99,,2013-06-25 07:02:00,
2013-06-25 03:11:00,74.0,69.0,-100.00,West,260,3.0,-999.0,82,-99.99,,,-99.99,,2013-06-25 07:11:00,
2013-06-25 03:22:00,74.0,69.0,-100.00,WSW,254,5.0,-999.0,82,-99.99,,,-99.99,,2013-06-25 07:22:00,
2013-06-25 03:33:00,74.0,69.0,-100.00,WSW,254,5.0,-999.0,82,-99.99,,,-99.99,,2013-06-25 07:33:00,
2013-06-25 03:43:00,74.0,69.0,-100.00,WSW,254,5.0,-999.0,82,-99.99,,,-99.99,,2013-06-25 07:43:00,
2013-06-25 04:02:00,74.0,68.0,-100.00,WSW,257,5.0,-999.0,83,-99.99,,,-99.99,,2013-06-25 08:02:00,
2013-06-25 04:11:00,74.0,68.0,-100.00,WSW,257,5.0,-999.0,83,-99.99,,,-99.99,,2013-06-25 08:11:00,
2013-06-25 04:34:00,74.0,69.0,-100.00,WSW,256,4.0,-999.0,84,-99.99,,,-99.99,,2013-06-25 08:34:00,
2013-06-25 04:43:00,74.0,69.0,-100.00,WSW,256,4.0,-999.0,84,-99.99,,,-99.99,,2013-06-25 08:43:00,
2013-06-25 05:02:00,73.0,69.0,-100.00,WSW,240,4.0,-999.0,85,-99.99,,,-99.99,,2013-06-25 09:02:00,
2013-06-25 05:12:00,73.0,69.0,-100.00,WSW,240,4.0,-999.0,85,-99.99,,,-99.99,,2013-06-25 09:12:00,
2013-06-25 05:22:00,73.0,69.0,-100.00,SW,220,3.0,-999.0,86,-99.99,,,-99.99,,2013-06-25 09:22:00,
2013-06-25 05:33:00,73.0,69.0,-100.00,SW,220,3.0,-999.0,86,-99.99,,,-99.99,,2013-06-25 09:33:00,
2013-06-25 05:43:00,73.0,69.0,-100.00,SW,220,3.0,-999.0,86,-99.99,,,-99.99,,2013-06-25 09:43:00,
2013-06-25 06:01:00,73.0,69.0,-100.00,SSW,206,5.0,-999.0,86,-99.99,,,-99.99,,2013-06-25 10:01:00,
2013-06-25 06:11:00,73.0,69.0,-100.00,SSW,206,5.0,-999.0,86,-99.99,,,-99.99,,2013-06-25 10:11:00,
2013-06-25 06:33:00,72.0,69.0,-100.00,SSW,210,5.0,-999.0,88,-99.99,,,-99.99,,2013-06-25 10:33:00,
2013-06-25 06:43:00,72.0,69.0,-100.00,SSW,210,5.0,-999.0,88,-99.99,,,-99.99,,2013-06-25 10:43:00,
2013-06-25 07:02:00,73.0,69.0,-100.00,SW,231,5.0,-999.0,87,-99.99,,,-99.99,,2013-06-25 11:02:00,
2013-06-25 07:12:00,73.0,69.0,-100.00,SW,231,5.0,-999.0,87,-99.99,,,-99.99,,2013-06-25 11:12:00,
2013-06-25 07:22:00,73.0,69.0,-100.00,SW,225,4.0,-999.0,86,-99.99,,,-99.99,,2013-06-25 11:22:00,
2013-06-25 07:43:00,74.0,69.0,-100.00,SW,226,5.0,-999.0,84,-99.99,,,-99.99,,2013-06-25 11:43:00,
2013-06-25 08:22:00,75.0,69.0,-100.00,WSW,251,4.0,-999.0,80,-99.99,,,-99.99,,2013-06-25 12:22:00,
2013-06-25 08:33:00,75.0,69.0,-100.00,WSW,251,4.0,-999.0,80,-99.99,,,-99.99,,2013-06-25 12:33:00,
2013-06-25 08:43:00,76.0,69.0,-100.00,SW,228,5.0,-999.0,79,-99.99,,,-99.99,,2013-06-25 12:43:00,
2013-06-25 09:02:00,76.0,69.0,-100.00,South,191,6.0,-999.0,78,-99.99,,,-99.99,,2013-06-25 13:02:00,
2013-06-25 09:12:00,77.0,69.0,-100.00,SSW,210,6.0,-999.0,76,-99.99,,,-99.99,,2013-06-25 13:12:00,
2013-06-25 09:22:00,77.0,69.0,-100.00,SSW,210,6.0,-999.0,76,-99.99,,,-99.99,,2013-06-25 13:22:00,
2013-06-25 09:34:00,78.0,69.0,-100.00,SW,224,6.0,-999.0,74,-99.99,,,-99.99,,2013-06-25 13:34:00,
2013-06-25 09:42:00,79.0,68.0,-100.00,WSW,255,6.0,-999.0,70,-99.99,,,-99.99,,2013-06-25 13:42:00,
2013-06-25 10:02:00,80.0,68.0,-100.00,WSW,257,5.0,-999.0,67,-99.99,,,-99.99,,2013-06-25 14:02:00,
2013-06-25 10:23:00,82.0,66.0,-100.00,WNW,300,5.0,-999.0,59,-99.99,,,-99.99,,2013-06-25 14:23:00,
2013-06-25 10:34:00,82.0,66.0,-100.00,WNW,300,5.0,-999.0,59,-99.99,,,-99.99,,2013-06-25 14:34:00,
2013-06-25 10:43:00,83.0,65.0,-100.00,WNW,297,7.0,-999.0,55,-99.99,,,-99.99,,2013-06-25 14:43:00,
2013-06-25 11:02:00,83.0,65.0,-100.00,WNW,302,8.0,-999.0,53,-99.99,,,-99.99,,2013-06-25 15:02:00,
2013-06-25 11:11:00,83.0,65.0,-100.00,WNW,289,9.0,-999.0,53,-99.99,,,-99.99,,2013-06-25 15:11:00,
2013-06-25 11:22:00,84.0,65.0,-100.00,WNW,291,8.0,-999.0,53,-99.99,,,-99.99,,2013-06-25 15:22:00,
2013-06-25 11:44:00,84.0,65.0,-100.00,NW,315,10.0,-999.0,51,-99.99,,,-99.99,,2013-06-25 15:44:00,
2013-06-25 12:03:00,85.0,65.0,-100.00,WNW,286,12.0,-999.0,50,-99.99,,,-99.99,,2013-06-25 16:03:00,
2013-06-25 12:35:00,85.0,65.0,-100.00,WNW,298,10.0,-999.0,49,-99.99,,,-99.99,,2013-06-25 16:35:00,
2013-06-25 12:44:00,86.0,65.0,-100.00,NW,310,8.0,-999.0,49,-99.99,,,-99.99,,2013-06-25 16:44:00,
2013-06-25 13:01:00,86.0,64.0,-100.00,WNW,298,8.0,-999.0,48,-99.99,,,-99.99,,2013-06-25 17:01:00,
2013-06-25 13:22:00,87.0,65.0,-100.00,NW,312,10.0,-999.0,47,-99.99,,,-99.99,,2013-06-25 17:22:00,
2013-06-25 13:33:00,87.0,65.0,-100.00,NW,312,10.0,-999.0,47,-99.99,,,-99.99,,2013-06-25 17:33:00,
2013-06-25 13:44:00,87.0,65.0,-100.00,WNW,286,8.0,-999.0,48,-99.99,,,-99.99,,2013-06-25 17:44:00,
2013-06-25 14:02:00,87.0,65.0,-100.00,WNW,287,6.0,-999.0,46,-99.99,,,-99.99,,2013-06-25 18:02:00,
2013-06-25 14:12:00,88.0,65.0,-100.00,WNW,302,8.0,-999.0,45,-99.99,,,-99.99,,2013-06-25 18:12:00,
2013-06-25 14:23:00,88.0,65.0,-100.00,WNW,302,8.0,-999.0,45,-99.99,,,-99.99,,2013-06-25 18:23:00,
2013-06-25 14:34:00,88.0,65.0,-100.00,WNW,303,8.0,-999.0,45,-99.99,,,-99.99,,2013-06-25 18:34:00,
2013-06-25 14:44:00,89.0,64.0,-100.00,NW,312,7.0,-999.0,44,-99.99,,,-99.99,,2013-06-25 18:44:00,
2013-06-25 15:01:00,89.0,64.0,-100.00,West,281,7.0,-999.0,43,-99.99,,,-99.99,,2013-06-25 19:01:00,
2013-06-25 15:23:00,89.0,64.0,-100.00,WSW,245,8.0,-999.0,43,-99.99,,,-99.99,,2013-06-25 19:23:00,
2013-06-25 15:33:00,90.0,64.0,-100.00,WSW,254,6.0,-999.0,42,-99.99,,,-99.99,,2013-06-25 19:33:00,
2013-06-25 15:44:00,90.0,63.0,-100.00,SW,224,9.0,-999.0,41,-99.99,,,-99.99,,2013-06-25 19:44:00,
2013-06-25 16:02:00,91.0,62.0,-100.00,West,273,6.0,-999.0,38,-99.99,,,-99.99,,2013-06-25 20:02:00,
2013-06-25 16:33:00,90.0,63.0,-100.00,West,263,7.0,-999.0,40,-99.99,,,-99.99,,2013-06-25 20:33:00,
2013-06-25 16:42:00,90.0,64.0,-100.00,West,276,9.0,-999.0,41,-99.99,,,-99.99,,2013-06-25 20:42:00,
2013-06-25 17:01:00,90.0,65.0,-100.00,West,270,9.0,-999.0,43,-99.99,,,-99.99,,2013-06-25 21:01:00,
2013-06-25 17:11:00,90.0,65.0,-100.00,West,277,7.0,-999.0,43,-99.99,,,-99.99,,2013-06-25 21:11:00,
2013-06-25 17:22:00,90.0,65.0,-100.00,West,259,8.0,-999.0,43,-99.99,,,-99.99,,2013-06-25 21:22:00,
2013-06-25 17:43:00,90.0,65.0,-100.00,WSW,246,6.0,-999.0,42,-99.99,,,-99.99,,2013-06-25 21:43:00,
2013-06-25 17:53:00,90.0,65.0,-100.00,SW,231,8.0,-999.0,42,-99.99,,,-99.99,,2013-06-25 21:53:00,
2013-06-25 18:11:00,90.0,65.0,-100.00,WSW,248,9.0,-999.0,43,-99.99,,,-99.99,,2013-06-25 22:11:00,
2013-06-25 18:22:00,90.0,65.0,-100.00,SW,227,11.0,-999.0,44,-99.99,,,-99.99,,2013-06-25 22:22:00,
2013-06-25 18:42:00,90.0,65.0,-100.00,SW,224,11.0,-999.0,44,-99.99,,,-99.99,,2013-06-25 22:42:00,
2013-06-25 18:52:00,90.0,65.0,-100.00,SW,232,12.0,-999.0,44,-99.99,,,-99.99,,2013-06-25 22:52:00,
2013-06-25 19:01:00,89.0,65.0,-100.00,SW,230,12.0,-999.0,44,-99.99,,,-99.99,,2013-06-25 23:01:00,
2013-06-25 19:11:00,89.0,65.0,-100.00,SW,230,12.0,-999.0,44,-99.99,,,-99.99,,2013-06-25 23:11:00,
2013-06-25 19:22:00,89.0,65.0,-100.00,SW,219,11.0,-999.0,45,-99.99,,,-99.99,,2013-06-25 23:22:00,
2013-06-25 19:44:00,89.0,65.0,-100.00,SW,229,11.0,-999.0,45,-99.99,,,-99.99,,2013-06-25 23:44:00,
2013-06-25 19:52:00,89.0,66.0,-100.00,SSW,208,10.0,-999.0,47,-99.99,,,-99.99,,2013-06-25 23:52:00,
2013-06-25 20:02:00,88.0,66.0,-100.00,SSW,207,10.0,-999.0,48,-99.99,,,-99.99,,2013-06-26 00:02:00,
2013-06-25 20:11:00,88.0,66.0,-100.00,SSW,207,10.0,-999.0,48,-99.99,,,-99.99,,2013-06-26 00:11:00,
2013-06-25 20:22:00,88.0,67.0,-100.00,SSW,206,9.0,-999.0,49,-99.99,,,-99.99,,2013-06-26 00:22:00,
2013-06-25 20:42:00,87.0,68.0,-100.00,SSW,213,11.0,-999.0,51,-99.99,,,-99.99,,2013-06-26 00:42:00,
2013-06-25 20:53:00,88.0,68.0,-100.00,SW,227,7.0,-999.0,51,-99.99,,,-99.99,,2013-06-26 00:53:00,
2013-06-25 21:11:00,87.0,68.0,-100.00,SW,232,10.0,-999.0,52,-99.99,,,-99.99,,2013-06-26 01:11:00,
2013-06-25 21:22:00,87.0,68.0,-100.00,SW,232,10.0,-999.0,52,-99.99,,,-99.99,,2013-06-26 01:22:00,
2013-06-25 21:33:00,87.0,68.0,-100.00,WSW,242,8.0,-999.0,52,-99.99,,,-99.99,,2013-06-26 01:33:00,
2013-06-25 21:43:00,87.0,68.0,-100.00,WSW,238,9.0,-999.0,53,-99.99,,,-99.99,,2013-06-26 01:43:00,
2013-06-25 22:11:00,86.0,68.0,-100.00,SW,232,10.0,-999.0,55,-99.99,,,-99.99,,2013-06-26 02:11:00,
2013-06-25 22:22:00,86.0,68.0,-100.00,SW,232,10.0,-999.0,55,-99.99,,,-99.99,,2013-06-26 02:22:00,
2013-06-25 22:34:00,86.0,69.0,-100.00,SW,219,8.0,-999.0,56,-99.99,,,-99.99,,2013-06-26 02:34:00,
2013-06-25 22:43:00,85.0,69.0,-100.00,SW,219,8.0,-999.0,56,-99.99,,,-99.99,,2013-06-26 02:43:00,
2013-06-25 23:02:00,85.0,69.0,-100.00,WSW,248,6.0,-999.0,56,-99.99,,,-99.99,,2013-06-26 03:02:00,
2013-06-25 23:43:00,81.0,59.0,-100.00,NNW,344,13.0,-999.0,47,-99.99,,,-99.99,,2013-06-26 03:43:00,